Вернуться в каталог

TIANQI 22

АктивенСвязьLEO
NORAD 57793·PAYLOAD·🇨🇳 China

Запущен Sep 5, 2023 с Yellow Sea Launch Area

Loading…

Ближайшие Пролёты (ближайшие 24 часа)

TLE

СвежийSource: Space-Track

Эпоха: Sep 14, 2026, 22:00 UTC

1 57793U 23135B   26257.91687439  .00000306  00000-0  20455-3 0  9992
2 57793  49.9676 134.8700 0011768 215.2304 144.7832 14.23160412157407

Отслеживайте TIANQI 22 в реальном времени с AllMySat

Download on the App Store